Lid_Strength_Index
1 1 1 1 1 1 1 1 -0 -0 -0 -0 -1 -1 -1 1 2 1 1 1 1 2
1 1 1 1 1 1 1 1 0 -0 -0 0 1 1 1 3 2 2 1 2 2 2
1 1 1 0 1 1 1 0 0 0 0 1 2 2 2 2 2 2 3 4 3 3
1 1 1 1 1 1 0 0 0 0 0 3 3 3 2 3 4 4 5 5 5 5
1 1 1 2 1 1 1 0 0 2 3 4 4 4 5 5 6 6 6 6 5 5
1 1 2 2 1 1 1 3 4 4 5 6 7 7 7 7 7 6 7 7 7 6
1 1 2 2 2 3 3 5 5 6 6 8 9 10 9 9 9 8 9 8 8 7
1 1 2 3 3 4 5 5 5 6 7 8 8 9 10 9 9 9 9 8 8 7
2 2 2 2 4 4 5 6 5 6 6 8 8 11 10 9 9 9 9 9 8 8
2 2 2 2 2 4 5 6 7 7 8 7 9 11 11 10 9 9 9 8 8 9
2 2 2 3 3 5 5 7 7 8 8 7 10 12 12 11 9 9 8 8 7 7
3 4 3 2 3 3 6 6 7 8 8 10 10 12 12 10 9 9 8 8 8 9
3 4 4 4 4 5 6 6 7 8 8 11 10 12 12 10 10 10 10 10 11 12
3 4 4 3 5 5 6 6 8 9 10 11 11 10 12 12 9 10 10 11 11 10